Regional Weather Roundup
Issued by NWS

Home | Current Version | Previous Version | Text Only | Print | Product List | Glossary On
Versions: 1 2 3 4 5 6 7 8 9 10 11 12 13 14 15 16 17 18 19 20 21 22 23 24 25 26 27 28 29 30 31 32 33 34 35 36 37 38 39 40 41 42 43 44 45 46 47 48 49 50
000
ASUS43 KBIS 031601
RWRND

NORTH DAKOTA REGIONAL WEATHER ROUNDUP
NATIONAL WEATHER SERVICE BISMARCK ND
1100 AM CDT SUN MAY 03 2015

NOTE: "FAIR" INDICATES FEW OR NO CLOUDS BELOW 12,000 FEET WITH NO
SIGNIFICANT WEATHER AND/OR OBSTRUCTIONS TO VISIBILITY.


NDZ001>003-009>011-017-031700-
NORTHWEST NORTH DAKOTA

CITY           SKY/WX    TMP DP  RH WIND       PRES   REMARKS
WILLISTON      SUNNY     56  28  34 NW12      30.03R
MINOT          SUNNY     57  27  31 NW20      29.97R
MINOT AFB      SUNNY     57  29  34 NW18      29.96R
$$

NDZ018>021-031>035-040>046-031700-
SOUTHWEST NORTH DAKOTA

CITY           SKY/WX    TMP DP  RH WIND       PRES   REMARKS
BISMARCK       CLOUDY    56  33  42 N12       29.99R
DICKINSON      MOSUNNY   56  26  31 N10G17    30.00R
GARRISON         N/A     58  31  35 N21       29.98S
HETTINGER ARPT CLOUDY    53  35  50 N12       30.00R
$$

NDZ004>008-012>016-024-026-027-054-031700-
NORTHEAST NORTH DAKOTA

CITY           SKY/WX    TMP DP  RH WIND       PRES   REMARKS
GRAND FORKS    CLOUDY    57  38  48 NW17G23   29.89R
GRND FRKS AFB  CLOUDY    57  35  44 NW17G25   29.90R
DEVILS LAKE    PTSUNNY   57  27  30 NW20G29   29.92R
$$

NDZ022-023-025-028>030-036>039-047>053-031700-
SOUTHEAST NORTH DAKOTA

CITY           SKY/WX    TMP DP  RH WIND       PRES   REMARKS
FARGO          PTSUNNY   62  39  42 N22G29    29.86S
JAMESTOWN      LGT RAIN  55  33  43 N29G37    29.89S
$$




USA.gov is the U.S. government's official web portal to all federal, state and local government web resources and services.